Location: Killam
(52.7910°N, 111.8608°W)
Time: 10:46:23
(UTC+00:00)

UNISAT 6 - Visible Passes

Search period start: 15 March 2026 00:00
Search period end: 25 March 2026 00:00
Orbit: 573 x 637 km, 97.8° (Epoch: 14 March)

Date Brightness Start Highest point End Pass type
(mag) Time Alt. Az. Time Alt. Az. Time Alt. Az.
15 Mar ? 09:39:12 21° NNE 09:39:12 21° NNE 09:41:01 10° N visible
15 Mar ? 11:16:02 16° NW 11:16:02 16° NW 11:16:58 10° NNW visible
16 Mar ? 09:51:46 25° NNE 09:51:46 25° NNE 09:53:51 10° N visible
16 Mar ? 11:28:37 15° NW 11:28:37 15° NW 11:29:28 10° NW visible
17 Mar ? 10:04:21 29° N 10:04:21 29° N 10:06:37 10° N visible
17 Mar ? 11:41:11 13° NW 11:41:11 13° NW 11:41:52 10° NW visible
18 Mar ? 08:40:04 11° NE 08:40:10 11° NE 08:41:24 10° NE visible
18 Mar ? 10:16:55 33° N 10:16:55 33° N 10:19:21 10° N visible
18 Mar ? 11:53:45 11° NW 11:53:45 11° NW 11:54:08 10° NW visible
19 Mar ? 08:52:38 14° NE 08:52:39 14° NE 08:54:48 10° NNE visible
19 Mar ? 10:29:28 36° NNW 10:29:28 36° NNW 10:32:02 10° NNW visible
20 Mar ? 09:05:11 17° ENE 09:05:11 17° ENE 09:07:54 10° NNE visible
20 Mar ? 10:42:01 37° NNW 10:42:01 37° NNW 10:44:41 10° NNW visible
21 Mar ? 09:17:43 22° ENE 09:17:43 22° ENE 09:20:50 10° N visible
21 Mar ? 10:54:33 36° NW 10:54:33 36° NW 10:57:17 10° NNW visible
22 Mar ? 09:30:15 27° ENE 09:30:15 27° ENE 09:33:42 10° N visible
22 Mar ? 11:07:05 32° WNW 11:07:05 32° WNW 11:09:49 10° NNW visible
23 Mar ? 09:42:46 34° ENE 09:42:46 34° ENE 09:46:30 10° N visible
23 Mar ? 11:19:36 27° WNW 11:19:36 27° WNW 11:22:18 10° NNW visible
24 Mar ? 09:55:17 43° ENE 09:55:17 43° ENE 09:59:14 10° N visible
24 Mar ? 11:32:07 23° WNW 11:32:07 23° WNW 11:34:42 10° NW visible
